G0TRT-13 Weather Reports


time (UTC)temp
C
wind
direction
speed
KPH
gust
KPH
rain 1hr
cm
rain 24hr
cm
rain mn
cm
humidity
%
barometer
mb
20260510190606 10 75 1.6 9.7 0.00 0.00 0.00 63 1013.7
20260510190105 11 74 1.6 9.7 0.00 0.00 0.00 63 1013.7
20260510185606 11 72 1.6 8.0 0.00 0.00 0.00 63 1013.7
20260510185104 11 75 1.6 11.3 0.00 0.00 0.00 63 1013.7
20260510184604 11 72 3.2 11.3 0.00 0.00 0.00 63 1013.6
20260510184104 11 78 3.2 8.0 0.00 0.00 0.00 62 1013.7
20260510183604 11 78 3.2 12.9 0.00 0.00 0.00 62 1013.7
20260510183102 11 79 3.2 14.5 0.00 0.00 0.00 61 1013.8
20260510182556 11 78 3.2 14.5 0.00 0.00 0.00 61 1013.7
20260510182050 11 79 1.6 11.3 0.00 0.00 0.00 63 1013.7
20260510181545 11 120 1.6 4.8 0.00 0.00 0.00 64 1013.7
20260510181043 11 113 1.6 6.4 0.00 0.00 0.00 64 1013.8
20260510180544 11 81 0.0 6.4 0.00 0.00 0.00 64 1013.8
20260510180043 11 79 1.6 9.7 0.00 0.00 0.00 63 1013.9
20260510175544 11 81 1.6 9.7 0.00 0.00 0.00 62 1014.0
20260510175044 12 79 1.6 9.7 0.00 0.00 0.00 63 1013.9
20260510174542 11 79 1.6 8.0 0.00 0.00 0.00 64 1013.9
20260510174040 11 79 1.6 12.9 0.00 0.00 0.00 63 1014.2
20260510173538 11 79 3.2 12.9 0.00 0.00 0.00 62 1014.1
20260510173036 12 77 3.2 9.7 0.00 0.00 0.00 63 1014.2
20260510172536 12 74 3.2 9.7 0.00 0.00 0.00 64 1014.1
20260510172036 12 73 1.6 9.7 0.00 0.00 0.00 64 1014.1
20260510171532 12 82 1.6 6.4 0.00 0.00 0.00 64 1014.1
20260510171031 12 75 3.2 9.7 0.00 0.00 0.00 64 1014.2
20260510170546 12 75 3.2 11.3 0.00 0.00 0.00 64 1014.2
20260510170032 12 74 3.2 11.3 0.00 0.00 0.00 65 1014.4
20260510165532 12 73 1.6 8.0 0.00 0.00 0.00 66 1014.4
20260510165032 12 72 1.6 8.0 0.00 0.00 0.00 65 1014.3
20260510164532 12 71 3.2 9.7 0.00 0.00 0.00 66 1014.4
20260510164032 12 71 3.2 11.3 0.00 0.00 0.00 65 1014.4
20260510163530 12 70 3.2 11.3 0.00 0.00 0.00 65 1014.5
20260510163030 12 71 3.2 12.9 0.00 0.00 0.00 65 1014.6
20260510162530 12 72 3.2 12.9 0.00 0.00 0.00 65 1014.6
20260510162030 12 70 1.6 9.7 0.00 0.00 0.00 65 1014.7
20260510161530 12 72 1.6 6.4 0.00 0.00 0.00 66 1014.7
20260510161030 12 71 3.2 8.0 0.00 0.00 0.00 66 1014.8
20260510160529 12 69 3.2 11.3 0.00 0.00 0.00 65 1015.0
20260510160030 12 72 3.2 11.3 0.00 0.00 0.00 65 1015.0
20260510155530 12 73 3.2 11.3 0.00 0.00 0.00 65 1015.0
20260510155029 12 79 3.2 9.7 0.00 0.00 0.00 67 1015.1
20260510154530 12 79 4.8 11.3 0.00 0.00 0.00 66 1015.2
20260510154030 12 73 4.8 11.3 0.00 0.00 0.00 66 1015.2
20260510153529 12 79 3.2 9.7 0.00 0.00 0.00 66 1015.3
20260510153029 12 81 3.2 11.3 0.00 0.00 0.00 68 1015.2
20260510152524 12 79 4.8 16.1 0.00 0.00 0.00 67 1015.3
20260510152018 12 88 3.2 16.1 0.00 0.00 0.00 67 1015.4
20260510151515 12 73 3.2 12.9 0.00 0.00 0.00 68 1015.5
20260510151016 12 80 3.2 12.9 0.00 0.00 0.00 68 1015.5
20260510150513 12 102 3.2 16.1 0.00 0.00 0.00 68 1015.8
20260510150013 11 124 3.2 16.1 0.00 0.00 0.00 68 1015.8
20260510145514 11 79 3.2 11.3 0.00 0.00 0.00 68 1015.9
20260510145014 11 79 3.2 12.9 0.00 0.00 0.00 69 1016.0
20260510144512 11 132 4.8 14.5 0.00 0.00 0.00 69 1016.0
20260510144012 11 79 4.8 14.5 0.00 0.00 0.00 69 1016.0
20260510143512 11 79 3.2 11.3 0.00 0.00 0.00 69 1016.0
20260510143012 11 82 1.6 11.3 0.00 0.00 0.00 70 1016.1
20260510142508 11 82 3.2 9.7 0.00 0.00 0.00 70 1016.0
20260510142008 11 82 3.2 14.5 0.00 0.00 0.00 71 1016.1
20260510141508 11 79 3.2 14.5 0.00 0.00 0.00 70 1016.2
20260510141007 11 82 3.2 12.9 0.00 0.00 0.00 70 1016.2
20260510140507 11 79 1.6 12.9 0.00 0.00 0.00 70 1016.3
20260510140008 11 79 3.2 12.9 0.00 0.00 0.00 70 1016.3
20260510135508 11 79 3.2 12.9 0.00 0.00 0.00 70 1016.3
20260510135006 11 98 1.6 6.4 0.00 0.00 0.00 70 1016.3
20260510134506 11 81 3.2 11.3 0.00 0.00 0.00 71 1016.3
20260510134005 11 77 3.2 11.3 0.00 0.00 0.00 71 1016.4
20260510133503 11 79 4.8 16.1 0.00 0.00 0.00 72 1016.4
20260510133007 11 80 3.2 16.1 0.00 0.00 0.00 71 1016.3
20260510132504 11 76 3.2 11.3 0.00 0.00 0.00 72 1016.4
20260510132007 11 79 3.2 12.9 0.00 0.00 0.00 72 1016.5
20260510131504 11 80 3.2 12.9 0.00 0.00 0.00 72 1016.3
20260510131005 11 91 3.2 11.3 0.00 0.00 0.00 72 1016.4
20260510130504 11 86 1.6 9.7 0.00 0.00 0.00 71 1016.5
20260510130006 11 131 3.2 12.9 0.00 0.00 0.00 71 1016.5
20260510125503 11 80 4.8 14.5 0.00 0.00 0.00 71 1016.6
20260510125004 11 73 4.8 14.5 0.00 0.00 0.00 71 1016.5
20260510124503 12 79 3.2 14.5 0.00 0.00 0.00 70 1016.6
20260510124004 12 80 1.6 9.7 0.00 0.00 0.00 71 1016.6
20260510123504 12 82 3.2 11.3 0.00 0.00 0.00 71 1016.6
20260510123004 11 79 3.2 12.9 0.00 0.00 0.00 71 1016.6
20260510122502 11 79 4.8 14.5 0.00 0.00 0.00 70 1016.6
20260510122004 12 81 3.2 14.5 0.00 0.00 0.00 70 1016.7
20260510121503 12 86 3.2 17.7 0.00 0.00 0.00 71 1016.7
20260510121005 12 73 4.8 17.7 0.00 0.00 0.00 70 1016.7
20260510120502 12 72 4.8 11.3 0.00 0.00 0.00 69 1016.6
20260510120004 12 73 3.2 11.3 0.00 0.00 0.00 69 1016.7
20260510115503 12 80 3.2 12.9 0.00 0.00 0.00 69 1016.8
20260510115004 12 78 3.2 12.9 0.00 0.00 0.00 67 1016.8
20260510114501 13 82 3.2 12.9 0.00 0.00 0.00 68 1016.9
20260510114004 13 79 4.8 12.9 0.00 0.00 0.00 67 1016.9
20260510113502 13 73 3.2 12.9 0.00 0.00 0.00 67 1017.0
20260510113010 13 80 3.2 11.3 0.00 0.00 0.00 67 1017.0
20260510112504 13 77 3.2 11.3 0.00 0.00 0.00 67 1017.0
20260510112003 13 139 1.6 11.3 0.00 0.00 0.00 66 1017.1
20260510111502 13 122 3.2 11.3 0.00 0.00 0.00 68 1017.1
20260510111004 13 86 3.2 16.1 0.00 0.00 0.00 66 1017.0
20260510110503 13 75 4.8 16.1 0.00 0.00 0.00 67 1017.1
20260510110005 13 84 4.8 14.5 0.00 0.00 0.00 66 1017.1
20260510105502 13 99 3.2 14.5 0.00 0.00 0.00 65 1017.2
20260510105004 13 77 4.8 17.7 0.00 0.00 0.00 67 1017.2
20260510104503 13 134 4.8 17.7 0.00 0.00 0.00 66 1017.2
20260510104004 13 120 3.2 9.7 0.00 0.00 0.00 67 1017.3
20260510103502 14 289 3.2 9.7 0.00 0.00 0.00 67 1017.2
20260510103004 13 53 4.8 16.1 0.00 0.00 0.00 67 1017.1
20260510102503 13 41 4.8 16.1 0.00 0.00 0.00 66 1017.2
20260510102006 13 172 3.2 12.9 0.00 0.00 0.00 67 1017.2
20260510101504 13 150 1.6 11.3 0.00 0.00 0.00 68 1017.3
20260510101006 13 155 3.2 12.9 0.00 0.00 0.00 67 1017.3
20260510100504 13 228 3.2 12.9 0.00 0.00 0.00 67 1017.3
20260510095959 13 209 3.2 11.3 0.00 0.00 0.00 68 1017.4
20260510095452 12 15 3.2 14.5 0.00 0.00 0.00 69 1017.5
20260510094945 12 57 3.2 14.5 0.00 0.00 0.00 69 1017.3
20260510094440 12 182 3.2 11.3 0.00 0.00 0.00 69 1017.4
20260510093934 12 160 3.2 14.5 0.00 0.00 0.00 71 1017.5
20260510093431 12 220 3.2 14.5 0.00 0.00 0.00 70 1017.5
20260510092931 12 160 3.2 11.3 0.00 0.00 0.00 72 1017.5
20260510092432 11 181 3.2 12.9 0.00 0.00 0.00 72 1017.6
20260510091932 11 180 4.8 12.9 0.00 0.00 0.00 72 1017.7
20260510091433 11 266 3.2 9.7 0.00 0.00 0.00 71 1017.8
20260510090933 11 265 3.2 12.9 0.00 0.00 0.00 72 1017.8
20260510090431 11 265 3.2 12.9 0.00 0.00 0.00 72 1017.9
20260510085931 11 264 3.2 12.9 0.00 0.00 0.00 72 1017.8
20260510085431 11 264 4.8 12.9 0.00 0.00 0.00 72 1017.7
20260510084930 11 264 4.8 12.9 0.00 0.00 0.00 72 1017.8
20260510084430 11 264 4.8 12.9 0.00 0.00 0.00 72 1017.7
20260510083930 11 264 4.8 14.5 0.00 0.00 0.00 72 1017.8
20260510083430 11 264 4.8 14.5 0.00 0.00 0.00 72 1017.9
20260510082930 11 264 3.2 11.3 0.00 0.00 0.00 73 1017.9
20260510082431 11 302 3.2 14.5 0.00 0.00 0.00 74 1018.0
20260510081930 11 288 4.8 14.5 0.00 0.00 0.00 74 1017.9
20260510081429 11 95 4.8 14.5 0.00 0.00 0.00 74 1017.9
20260510080924 11 96 3.2 14.5 0.00 0.00 0.00 73 1018.0
20260510080417 11 98 4.8 14.5 0.00 0.00 0.00 73 1018.0
20260510075911 11 99 4.8 17.7 0.00 0.00 0.00 76 1018.0
20260510075412 10 101 4.8 17.7 0.00 0.00 0.00 75 1018.1
20260510074910 10 105 3.2 12.9 0.00 0.00 0.00 76 1018.0
20260510074410 10 134 4.8 12.9 0.00 0.00 0.00 75 1017.9
20260510073909 10 90 3.2 9.7 0.00 0.00 0.00 75 1017.9
20260510073407 10 0 4.8 16.1 0.00 0.00 0.00 76 1017.8
20260510072906 10 16 4.8 16.1 0.00 0.00 0.00 75 1017.8
20260510072406 10 349 4.8 12.9 0.00 0.00 0.00 76 1017.8
20260510071906 10 79 3.2 12.9 0.00 0.00 0.00 77 1017.8
20260510071403 10 150 3.2 9.7 0.00 0.00 0.00 78 1017.7
20260510070903 10 86 3.2 9.7 0.00 0.00 0.00 78 1017.7
20260510070404 10 301 3.2 11.3 0.00 0.00 0.00 79 1017.6
20260510065903 10 300 1.6 11.3 0.00 0.00 0.00 79 1017.7
20260510065404 9 72 1.6 9.7 0.00 0.00 0.00 80 1017.5
20260510064903 9 84 3.2 11.3 0.00 0.00 0.00 80 1017.6
20260510064403 8 105 3.2 12.9 0.00 0.00 0.00 80 1017.6
20260510063903 8 92 3.2 12.9 0.00 0.00 0.00 80 1017.6
20260510063402 8 105 3.2 14.5 0.00 0.00 0.00 80 1017.5
20260510062903 8 4 3.2 14.5 0.00 0.00 0.00 80 1017.5
20260510062359 8 88 1.6 11.3 0.00 0.00 0.00 80 1017.4
20260510061853 9 91 1.6 11.3 0.00 0.00 0.00 80 1017.4
20260510061347 9 99 3.2 9.7 0.00 0.00 0.00 81 1017.6
20260510060847 8 99 3.2 17.7 0.00 0.00 0.00 81 1017.5
20260510060345 8 87 3.2 17.7 0.00 0.00 0.00 82 1017.6
20260510055847 8 86 1.6 9.7 0.00 0.00 0.00 83 1017.6
20260510055346 8 101 3.2 12.9 0.00 0.00 0.00 83 1017.6
20260510054845 8 91 3.2 12.9 0.00 0.00 0.00 83 1017.4
20260510054344 8 103 3.2 11.3 0.00 0.00 0.00 83 1017.5
20260510053841 8 90 3.2 11.3 0.00 0.00 0.00 84 1017.6
20260510053341 8 84 1.6 8.0 0.00 0.00 0.00 84 1017.5
20260510052841 8 215 1.6 8.0 0.00 0.00 0.00 84 1017.6
20260510052344 8 89 1.6 8.0 0.00 0.00 0.00 84 1017.7
20260510051842 8 83 1.6 6.4 0.00 0.00 0.00 84 1017.7
20260510050838 8 80 1.6 8.0 0.00 0.00 0.00 84 1017.6
20260510050340 7 80 1.6 8.0 0.00 0.00 0.00 85 1017.7
20260510045840 7 96 0.0 6.4 0.00 0.00 0.00 85 1017.6
20260510045337 7 88 0.0 4.8 0.00 0.00 0.00 85 1017.6
20260510044837 7 155 1.6 6.4 0.00 0.00 0.00 85 1017.6
20260510044337 7 92 0.0 6.4 0.00 0.00 0.00 85 1017.6
20260510043837 7 91 0.0 6.4 0.00 0.00 0.00 85 1017.6
20260510043337 7 215 0.0 8.0 0.00 0.00 0.00 85 1017.5
20260510042837 7 219 1.6 8.0 0.00 0.00 0.00 85 1017.5
20260510042333 7 91 1.6 6.4 0.00 0.00 0.00 85 1017.5
20260510041833 7 144 1.6 8.0 0.00 0.00 0.00 85 1017.5
20260510041333 7 83 1.6 9.7 0.00 0.00 0.00 85 1017.5
20260510040832 7 93 1.6 9.7 0.00 0.00 0.00 85 1017.5
20260510040333 7 181 1.6 6.4 0.00 0.00 0.00 85 1017.5
20260510035833 7 187 0.0 6.4 0.00 0.00 0.00 85 1017.6
20260510035331 7 118 0.0 6.4 0.00 0.00 0.00 84 1017.5
20260510034831 7 111 0.0 6.4 0.00 0.00 0.00 84 1017.7
20260510034330 7 91 1.6 6.4 0.00 0.00 0.00 84 1017.8
20260510033828 7 137 1.6 6.4 0.00 0.00 0.00 83 1017.8
20260510033328 7 91 1.6 9.7 0.00 0.00 0.00 83 1017.9
20260510032827 7 93 1.6 9.7 0.00 0.00 0.00 83 1018.0
20260510032325 8 89 0.0 9.7 0.00 0.00 0.00 82 1017.9
20260510031826 8 90 0.0 12.9 0.00 0.00 0.00 82 1017.9
20260510031326 8 82 0.0 12.9 0.00 0.00 0.00 81 1018.0
20260510030824 8 209 0.0 6.4 0.00 0.00 0.00 80 1017.9
20260510030321 8 127 0.0 6.4 0.00 0.00 0.00 79 1018.1
20260510025820 8 110 0.0 8.0 0.00 0.00 0.00 79 1018.1
20260510025318 8 206 0.0 8.0 0.00 0.00 0.00 78 1018.1
20260510024816 8 167 0.0 6.4 0.00 0.00 0.00 78 1018.1
20260510024316 8 118 0.0 6.4 0.00 0.00 0.00 77 1018.0
20260510023816 8 110 1.6 11.3 0.00 0.00 0.00 77 1018.0
20260510023311 8 174 1.6 11.3 0.00 0.00 0.00 76 1018.0
20260510022812 8 89 1.6 11.3 0.00 0.00 0.00 75 1018.0
20260510022309 8 89 1.6 11.3 0.00 0.00 0.00 75 1017.9
20260510021808 8 103 1.6 6.4 0.00 0.00 0.00 74 1018.0
20260510021306 8 105 1.6 6.4 0.00 0.00 0.00 74 1018.0
20260510020806 8 108 1.6 9.7 0.00 0.00 0.00 74 1018.1
20260510015759 8 106 1.6 9.7 0.00 0.00 0.00 73 1017.8
20260510015253 8 108 1.6 12.9 0.00 0.00 0.00 73 1017.8
20260510014747 8 202 1.6 12.9 0.00 0.00 0.00 73 1017.6
20260510014247 8 97 1.6 8.0 0.00 0.00 0.00 73 1017.6
20260510013746 8 89 0.0 8.0 0.00 0.00 0.00 73 1017.7
20260510013243 9 101 0.0 4.8 0.00 0.00 0.00 72 1017.8
20260510012741 9 131 0.0 6.4 0.00 0.00 0.00 72 1017.9
20260510012242 9 106 1.6 6.4 0.00 0.00 0.00 72 1017.9
20260510011737 9 89 1.6 8.0 0.00 0.00 0.00 71 1017.9
20260510011237 9 94 1.6 8.0 0.00 0.00 0.00 71 1017.8
20260510010737 9 93 1.6 8.0 0.00 0.00 0.00 70 1018.0
20260510010235 9 108 1.6 8.0 0.00 0.00 0.00 69 1017.9
20260510005734 10 99 1.6 8.0 0.00 0.00 0.00 68 1017.8
20260510005231 10 84 1.6 8.0 0.00 0.00 0.00 67 1017.7
20260510004731 10 104 1.6 9.7 0.00 0.00 0.00 67 1017.6
20260510004230 10 103 3.2 9.7 0.00 0.00 0.00 66 1017.7
20260510003731 10 105 1.6 9.7 0.00 0.00 0.00 65 1017.6
20260510003230 10 89 3.2 12.9 0.00 0.00 0.00 65 1017.7
20260510002731 10 107 3.2 12.9 0.00 0.00 0.00 64 1017.5
20260510002231 10 107 3.2 9.7 0.00 0.00 0.00 64 1017.6
20260510001729 10 108 3.2 12.9 0.00 0.00 0.00 63 1017.6
20260510001231 11 108 3.2 12.9 0.00 0.00 0.00 63 1017.5
20260510000731 11 84 3.2 11.3 0.00 0.00 0.00 63 1017.6
20260510000226 11 106 3.2 16.1 0.00 0.00 0.00 62 1017.6
20260509235718 11 84 3.2 16.1 0.00 0.00 0.00 62 1017.4
20260509235212 11 106 3.2 11.3 0.00 0.00 0.00 62 1017.6
20260509234711 11 110 3.2 9.7 0.00 0.00 0.00 61 1017.6
20260509234210 11 96 1.6 8.0 0.00 0.00 0.00 63 1017.5
20260509233711 11 96 1.6 8.0 0.00 0.00 0.00 63 1017.5
20260509233212 11 89 1.6 9.7 0.00 0.00 0.00 63 1017.6
20260509232708 11 211 1.6 9.7 0.00 0.00 0.00 64 1017.5
20260509232207 11 108 1.6 11.3 0.00 0.00 0.00 64 1017.4
20260509232002 12 113 3.2 11.3 0.00 0.00 0.00 64 1017.3
20260509231204 12 108 1.6 8.0 0.00 0.00 0.00 64 1017.3
20260509230709 12 105 1.6 6.4 0.00 0.00 0.00 63 1017.2
20260509230202 12 107 1.6 9.7 0.00 0.00 0.00 64 1017.2
20260509225703 12 108 3.2 9.7 0.00 0.00 0.00 63 1017.3
20260509225203 12 106 3.2 9.7 0.00 0.00 0.00 63 1017.2
20260509224722 12 110 1.6 9.7 0.00 0.00 0.00 64 1017.2
20260509224234 11 93 0.0 4.8 0.00 0.00 0.00 67 1017.1
20260509224159 12 106 1.6 8.0 0.00 0.00 0.00 66 1017.1
20260509223407 12 93 0.0 1.6 0.00 0.00 0.00 67 1017.0
20260509223138 12 93 0.0 1.6 0.00 0.00 0.00 67 1017.0
20260509222632 12 91 0.0 1.6 0.00 0.00 0.00 67 1017.1
20260509222130 12 95 0.0 4.8 0.00 0.00 0.00 66 1017.2
20260509221630 12 84 0.0 4.8 0.00 0.00 0.00 66 1017.2
20260509221129 12 101 0.0 1.6 0.00 0.00 0.00 66 1017.2
20260509220632 12 174 0.0 3.2 0.00 0.00 0.00 65 1017.3
20260509220147 13 150 1.6 4.8 0.00 0.00 0.00 65 1017.2
20260509215619 13 94 1.6 6.4 0.00 0.00 0.00 64 1017.2
20260509215108 13 94 1.6 9.7 0.00 0.00 0.00 63 1017.2
20260509214607 13 94 1.6 9.7 0.00 0.00 0.00 63 1017.2
20260509214106 13 95 1.6 8.0 0.00 0.00 0.00 63 1017.1
20260509213604 13 96 1.6 9.7 0.00 0.00 0.00 62 1017.1
20260509213104 13 94 1.6 9.7 0.00 0.00 0.00 62 1016.9
20260509212607 13 94 1.6 8.0 0.00 0.00 0.00 62 1016.9
20260509212123 13 91 1.6 6.4 0.00 0.00 0.00 62 1016.8
20260509211604 13 94 1.6 8.0 0.00 0.00 0.00 63 1016.8
20260509211104 13 100 1.6 8.0 0.00 0.00 0.00 63 1016.7
20260509210602 13 95 1.6 6.4 0.00 0.00 0.00 64 1016.7
20260509205602 13 127 0.0 1.6 0.00 0.00 0.00 66 1016.6
20260509204603 13 131 0.0 0.0 0.00 0.00 0.00 66 1016.5
20260509204056 13 132 0.0 1.6 0.00 0.00 0.00 65 1016.5
20260509203551 13 132 0.0 1.6 0.00 0.00 0.00 65 1016.5
20260509203044 13 132 0.0 0.0 0.00 0.00 0.00 64 1016.5
20260509202544 13 132 0.0 0.0 0.00 0.00 0.00 64 1016.6
20260509202043 13 132 0.0 1.6 0.00 0.00 0.00 64 1016.4
20260509201540 14 131 0.0 1.6 0.00 0.00 0.00 63 1016.4
20260509201038 14 131 0.0 1.6 0.00 0.00 0.00 63 1016.3
20260509200536 14 113 0.0 0.0 0.00 0.00 0.00 62 1016.2
20260509200035 15 113 0.0 0.0 0.00 0.00 0.00 62 1016.3
20260509195533 15 113 0.0 1.6 0.00 0.00 0.00 61 1016.0
20260509195046 15 113 0.0 1.6 0.00 0.00 0.00 61 1016.1
20260509194555 15 105 0.0 1.6 0.00 0.00 0.00 60 1016.0
20260509194052 15 99 0.0 1.6 0.00 0.00 0.00 60 1016.0
20260509193538 16 98 0.0 1.6 0.00 0.00 0.00 60 1016.0
20260509193030 16 98 0.0 4.8 0.00 0.00 0.00 59 1015.9
20260509192531 16 98 0.0 4.8 0.00 0.00 0.00 59 1015.9
20260509192030 16 98 0.0 4.8 0.00 0.00 0.00 59 1015.8
20260509191531 16 101 0.0 4.8 0.00 0.00 0.00 58 1015.9
20260509191030 17 98 0.0 3.2 0.00 0.00 0.00 58 1015.8